Wind_Speed
43 42 41 40 39 38 36 34 34 34 34 34 33 32 32 32 32 31 31 31 31 32 32 32 32 31 31 31 31 31 32 33 34 35 36 36 37 38 38 39 39 40 40 41 42 43 44 45 46 47 47 48 49 49 50 50 50 51 51 51 51 51 50 51 52 53 54 55 56 56 57 57 56 56 55 56 56 57 57 58 58 58 58 58 58 58
43 42 41 40 38 37 35 34 34 34 34 33 33 32 32 32 31 31 31 31 31 31 31 31 31 31 31 31 31 31 32 33 34 35 36 36 37 38 38 38 39 39 40 41 42 43 44 45 46 47 47 48 48 49 49 50 50 51 51 51 51 52 52 52 53 54 55 56 57 58 58 57 56 54 54 54 55 56 56 57 58 58 59 59 58 58
43 42 41 39 38 36 35 34 33 33 34 33 33 32 32 32 31 31 30 30 31 31 31 31 31 31 31 31 31 32 32 33 34 35 35 36 37 37 38 38 38 39 40 41 42 43 44 45 45 46 46 47 48 48 49 49 49 50 50 50 51 51 52 53 54 55 56 56 57 58 58 56 54 53 54 54 54 55 55 56 57 58 58 58 58 59
43 42 40 39 37 36 34 33 33 33 33 33 32 32 31 31 31 30 30 30 30 30 31 31 31 31 31 31 31 32 32 33 34 35 35 36 36 37 37 37 38 39 40 41 42 43 43 44 44 45 45 46 46 46 47 47 48 48 49 49 50 51 52 53 54 55 56 56 57 58 57 55 53 53 53 54 54 55 55 56 56 57 57 57 58 58
43 41 40 38 37 35 34 33 33 33 33 33 32 32 31 31 30 30 30 30 30 30 30 31 31 31 31 32 32 32 33 33 34 34 35 36 36 36 37 37 38 39 40 41 41 42 42 43 43 43 43 44 44 44 45 45 46 46 47 48 49 50 51 52 53 54 55 56 56 56 55 54 53 53 53 54 54 55 56 56 57 57 57 57 57 58
42 41 39 38 36 35 33 33 32 32 32 32 32 31 31 30 30 30 29 29 30 30 30 31 31 31 31 32 32 32 33 33 34 34 35 35 36 36 36 37 38 39 40 40 41 41 41 41 41 41 41 41 42 42 43 43 44 45 46 47 48 49 50 51 52 53 54 54 54 54 53 52 52 52 53 53 54 56 57 57 57 57 57 58 58 58
42 40 39 37 36 35 33 32 32 32 32 32 32 31 31 30 30 29 29 29 30 30 31 31 31 31 31 31 32 32 33 33 34 35 35 35 35 36 37 37 38 39 39 40 40 40 40 40 40 40 40 40 40 41 42 43 44 45 46 47 47 48 49 49 50 51 52 52 52 52 52 51 51 52 53 53 54 56 57 57 58 58 57 58 58 59
42 40 38 37 35 34 33 32 31 31 31 32 32 31 31 30 29 29 29 30 30 30 31 31 31 31 31 31 31 32 33 34 35 35 35 35 36 36 37 38 38 39 39 39 39 39 39 39 38 39 39 39 40 41 42 43 44 45 45 46 46 46 47 48 48 49 49 50 50 51 51 50 50 51 52 53 54 55 56 57 58 58 58 59 59 59
41 40 38 36 35 34 33 31 30 30 31 32 32 31 30 29 29 29 30 30 30 31 31 32 32 31 31 30 31 32 33 34 35 36 36 36 36 37 38 38 39 39 39 39 39 38 38 38 38 39 39 40 41 41 42 43 43 44 44 44 45 45 45 46 46 46 47 48 48 49 49 49 49 50 50 51 52 53 55 56 57 58 59 59 60 60
41 39 37 36 34 33 32 31 30 30 31 32 32 31 30 29 29 30 30 30 30 31 31 32 32 31 31 30 30 32 33 35 35 36 36 36 37 37 38 39 39 39 39 39 38 38 38 38 39 39 40 40 41 42 42 42 43 43 43 43 44 44 44 44 44 44 45 46 46 47 48 48 48 48 48 49 49 50 51 53 54 55 57 58 59 60
40 39 37 35 34 33 32 31 30 30 31 31 31 30 29 29 29 30 31 31 31 31 32 32 32 31 30 30 30 32 34 35 36 36 36 36 37 37 38 39 39 39 39 39 38 38 38 39 39 40 41 41 41 42 42 42 42 42 42 43 43 43 43 43 42 42 43 43 44 45 46 46 47 47 47 47 47 48 48 48 49 50 51 53 54 56
40 38 37 35 34 32 31 30 30 30 30 30 30 29 28 28 29 30 31 31 32 32 32 31 31 30 30 30 31 32 34 36 36 37 36 36 37 37 38 39 39 39 39 39 39 39 39 40 40 41 41 41 41 41 41 41 41 41 42 42 42 43 43 42 42 41 41 42 42 43 44 44 45 46 46 46 46 45 44 43 43 44 45 47 48 50
39 38 37 35 34 32 31 30 30 30 30 30 29 28 28 28 29 30 32 32 32 32 32 31 30 29 29 29 31 33 35 36 37 37 37 37 37 38 39 40 40 40 40 40 40 40 40 40 40 40 40 41 40 40 40 40 40 40 40 41 42 42 42 42 42 41 41 41 41 42 42 43 44 44 45 45 45 43 41 40 41 42 43 43 44 46
39 38 36 35 34 32 31 30 30 30 30 29 29 28 28 28 29 31 32 33 33 32 32 32 31 29 29 29 31 33 36 37 38 38 37 37 38 38 40 40 40 40 40 41 40 40 39 40 40 40 39 39 39 38 38 38 38 39 39 40 41 41 41 42 42 41 41 41 41 41 42 42 42 43 43 44 44 42 40 41 42 43 44 44 44 45
38 37 36 35 33 32 31 30 30 30 29 29 28 28 28 28 29 30 32 33 32 32 32 32 31 30 29 29 31 33 36 38 38 39 38 38 38 38 39 41 41 41 40 41 40 40 39 39 39 38 38 37 37 37 37 37 37 38 38 39 40 40 41 41 41 42 42 42 41 42 42 42 42 42 43 44 43 41 41 42 43 45 45 45 46 46
37 37 36 34 33 32 31 30 30 30 29 28 28 27 27 28 29 31 32 32 32 31 31 31 32 31 30 29 30 33 36 38 39 39 39 39 38 38 39 40 41 41 40 40 40 39 38 38 37 36 36 35 35 35 35 36 37 37 38 39 40 40 41 41 41 42 42 42 42 42 42 42 42 43 43 43 42 41 41 42 43 44 45 45 46 47
37 36 35 34 33 31 30 30 30 30 29 28 27 27 27 28 30 31 31 31 31 31 31 31 32 32 32 31 31 32 35 37 39 39 39 39 38 38 38 40 41 41 40 40 39 39 38 37 36 35 34 34 34 34 35 36 37 38 39 39 40 41 41 41 41 42 42 42 42 43 43 43 43 43 43 43 42 42 41 42 43 44 44 44 46 47
37 36 35 34 32 31 30 30 30 29 29 28 27 27 27 29 30 31 31 30 30 30 30 31 31 32 33 33 32 32 34 36 38 39 40 40 39 38 38 40 41 41 40 40 39 38 37 36 35 34 34 34 34 35 36 36 37 38 39 40 41 41 42 42 42 42 42 42 42 42 43 43 43 43 42 42 42 41 41 42 42 43 43 43 45 46
36 35 34 33 32 31 30 30 29 29 28 27 27 28 29 30 31 30 30 29 29 30 30 31 31 32 33 34 33 33 34 36 38 39 40 41 40 39 38 40 41 41 40 39 38 37 37 36 34 34 34 34 35 36 37 38 38 38 39 40 40 41 42 42 42 42 42 42 42 42 42 42 42 42 41 41 40 40 39 39 38 38 39 40 43 44
36 35 33 32 31 31 30 29 28 28 28 28 28 29 30 30 30 30 29 29 29 29 30 31 31 32 33 34 33 33 34 35 38 39 41 41 40 39 39 40 41 41 40 38 37 37 36 35 34 34 34 35 36 37 38 38 39 39 39 39 40 40 41 41 42 42 43 42 42 42 41 41 41 41 40 40 38 37 35 33 32 32 35 37 40 42
35 34 32 31 31 31 30 29 28 27 28 29 29 30 30 30 30 29 29 28 29 30 30 31 31 32 33 33 33 33 34 35 37 39 41 42 41 40 39 40 41 41 40 38 37 36 36 35 34 34 35 36 37 38 39 39 39 39 39 39 39 39 40 40 41 42 42 42 42 42 41 41 40 40 39 37 35 33 32 32 34 34 35 37 38 40
34 33 31 31 31 30 29 28 28 28 28 29 30 30 30 29 29 29 29 29 29 30 30 31 32 33 33 33 33 33 33 35 37 39 41 43 42 40 39 40 41 41 40 38 37 36 36 35 35 35 35 37 38 39 39 39 39 39 39 39 39 39 39 40 40 41 42 42 42 41 41 40 39 39 38 36 35 35 36 36 36 36 36 37 37 38
33 32 31 30 30 30 29 29 28 28 29 29 29 29 29 29 29 29 29 29 30 31 31 32 32 33 33 33 32 32 33 35 36 39 41 43 43 41 40 40 41 41 39 38 37 37 36 35 35 35 36 37 38 39 39 39 39 39 39 39 40 40 39 39 40 40 40 41 41 40 39 39 38 37 37 36 36 37 38 38 37 36 36 35 35 35
32 31 30 30 30 30 29 29 29 28 28 28 28 28 29 29 29 30 30 30 30 31 31 32 32 32 32 32 32 32 33 34 36 38 40 42 42 42 40 40 41 41 40 38 38 37 37 36 35 36 37 38 38 39 39 39 39 39 39 40 40 40 39 39 39 39 39 39 39 39 38 37 37 36 36 36 36 36 37 37 37 36 34 34 33 32
32 31 30 30 30 30 30 29 29 28 27 27 27 28 28 29 30 30 31 31 31 31 32 32 32 32 32 32 33 33 33 34 35 38 40 42 42 42 40 40 41 41 40 39 38 38 38 37 36 36 37 38 39 39 40 40 40 40 40 40 39 39 39 38 38 38 38 38 38 38 37 36 36 35 34 34 34 34 33 33 33 32 32 32 32 31
32 31 30 30 29 29 29 29 28 27 26 27 27 28 29 30 31 32 32 32 32 31 31 32 32 32 33 33 33 33 33 34 35 37 39 41 42 42 40 40 40 41 41 40 39 39 38 38 37 37 38 39 39 40 41 41 41 41 40 40 39 39 38 38 37 37 37 37 37 36 36 35 34 34 33 33 32 30 29 28 28 29 29 30 30 30
34 33 31 30 29 29 28 28 27 27 26 27 28 29 30 31 32 32 33 32 31 31 32 32 33 33 34 34 34 34 34 34 35 36 38 41 42 42 41 40 40 41 41 41 40 39 39 39 38 38 39 40 40 41 42 43 43 42 41 39 38 37 37 36 36 35 35 35 35 35 35 34 33 33 32 32 30 29 27 26 26 26 26 27 27 27
35 34 32 31 30 29 29 28 27 27 27 27 28 29 30 32 32 33 33 32 31 31 32 32 33 34 34 35 35 34 34 34 34 36 38 40 42 42 41 40 40 41 42 42 41 40 39 39 39 40 40 41 42 42 43 44 44 43 41 39 38 36 35 34 34 34 34 34 34 34 34 33 32 32 31 31 30 28 26 26 25 25 25 25 25 24
35 34 33 32 31 30 29 29 28 27 27 28 29 30 31 32 32 32 32 32 32 32 32 32 33 34 35 36 36 35 34 34 34 35 38 40 41 42 41 40 40 41 42 43 42 41 39 39 40 41 42 42 43 44 45 45 45 44 42 40 38 36 34 33 33 33 33 33 33 33 33 32 32 31 30 30 29 28 27 26 26 25 25 25 24 23
34 34 33 32 31 31 30 29 28 28 28 29 30 31 31 32 32 32 32 31 31 31 31 32 32 33 35 36 36 36 34 33 33 35 38 40 41 41 41 41 40 40 42 44 44 43 41 39 40 41 43 44 44 45 46 47 47 46 44 42 39 36 34 33 32 32 32 32 32 32 32 31 31 30 29 29 28 27 26 26 26 26 26 24 23 22
34 34 33 33 32 31 30 29 29 29 29 30 30 31 32 32 32 31 31 31 31 31 31 32 32 33 34 36 37 37 35 33 33 35 37 39 41 41 41 41 41 40 41 43 45 46 45 42 40 41 43 45 46 47 47 48 48 48 46 43 40 37 34 33 32 31 31 31 31 31 31 30 30 29 28 27 26 25 24 24 25 25 25 23 21 19
34 34 33 33 32 31 31 30 29 29 30 30 31 31 31 32 32 31 31 31 31 31 32 32 33 33 34 35 36 36 35 34 33 35 37 39 41 41 41 41 41 41 41 42 44 46 47 46 44 43 43 45 47 48 49 49 49 49 47 44 41 38 35 33 31 31 31 30 30 30 30 29 28 27 26 25 24 23 23 22 23 23 23 22 20 18
34 34 33 32 32 31 31 30 30 30 30 30 31 31 31 31 31 31 31 31 31 32 32 32 33 33 34 35 36 36 35 34 33 35 37 39 40 41 41 41 41 41 41 42 42 44 45 46 46 45 45 46 47 49 50 50 50 49 47 45 42 38 35 33 31 31 30 30 30 29 28 28 27 26 25 23 22 21 21 21 21 21 22 21 19 17
34 34 33 32 32 31 31 30 30 30 30 30 30 31 31 31 31 31 31 32 32 32 32 32 32 33 34 35 36 36 35 33 33 34 36 38 40 41 41 41 41 42 42 42 43 43 44 45 46 47 47 47 48 49 50 51 51 50 48 45 42 39 36 34 32 31 30 30 29 29 28 27 26 24 23 22 21 20 20 19 20 20 20 19 17 15
34 33 33 32 32 31 30 30 29 29 29 29 30 30 31 31 31 32 32 32 32 32 32 32 32 33 34 35 36 36 35 33 33 33 35 37 39 40 41 41 41 42 42 43 43 44 44 45 45 46 48 48 49 49 50 51 51 50 48 46 43 40 37 34 32 31 30 29 29 28 27 26 25 23 22 20 20 19 19 19 19 19 18 17 15 13
33 33 33 32 31 30 30 29 28 28 28 29 29 30 30 31 32 32 33 33 33 33 32 32 32 33 34 35 35 36 35 33 32 33 34 36 38 40 41 41 41 41 42 43 43 44 45 45 45 46 47 49 50 50 50 50 51 50 48 46 43 40 37 35 33 31 30 29 28 27 26 25 24 22 21 20 19 18 18 18 18 17 16 15 13 12
33 33 32 31 30 29 28 27 27 27 27 28 29 30 31 32 32 33 33 33 33 32 32 32 32 33 34 35 35 35 35 33 32 32 33 35 37 39 40 41 41 41 41 42 43 44 44 45 46 46 47 48 50 51 51 51 51 50 49 47 44 41 38 35 32 31 29 28 28 27 25 24 23 22 20 19 18 18 18 18 17 16 15 13 12 11
33 32 31 30 29 28 27 26 25 26 27 28 29 30 31 32 33 33 33 32 32 32 32 32 32 33 34 34 35 35 34 33 32 32 33 34 36 38 40 40 41 41 41 41 42 43 44 45 46 47 47 48 49 50 51 51 51 51 50 48 45 42 38 35 32 30 29 28 27 26 25 24 22 21 20 18 17 17 17 17 16 15 14 12 10 10
32 31 30 29 28 26 25 25 25 26 27 29 30 30 31 32 32 32 32 31 31 31 32 32 32 33 33 34 34 34 33 32 31 31 32 33 35 37 39 40 40 40 40 40 41 42 43 44 45 46 48 49 49 50 50 50 51 51 51 49 47 43 39 35 32 29 28 27 26 25 24 23 22 21 19 18 17 17 17 16 16 15 13 12 10 9
30 30 29 28 27 26 25 25 26 27 28 29 30 30 31 31 31 31 31 31 31 31 31 32 33 33 34 34 34 33 32 31 30 31 31 33 34 36 38 39 40 40 40 40 40 41 42 43 44 45 47 48 49 50 50 50 50 50 50 50 48 45 40 35 31 29 27 26 25 25 24 23 21 20 19 17 17 16 16 16 15 14 13 11 9 9
29 29 28 27 26 26 26 26 26 27 28 28 29 29 30 30 30 30 30 30 30 31 31 32 33 33 34 34 33 32 31 30 29 30 31 32 34 35 37 38 39 40 40 40 40 40 41 42 43 44 46 47 49 50 50 49 49 49 49 49 48 45 41 36 31 28 26 25 24 24 23 22 21 19 18 17 16 16 16 15 15 14 12 11 9 8
29 28 28 27 27 26 26 26 26 27 27 28 28 28 28 28 29 29 29 30 30 31 31 32 33 34 34 34 32 31 29 29 29 29 30 32 33 34 36 37 38 39 40 40 41 40 41 41 42 44 45 46 48 49 49 49 48 48 48 47 46 45 42 37 32 28 26 24 23 23 22 22 20 18 17 16 15 15 15 15 15 14 13 11 9 8
29 29 28 27 27 26 26 26 26 26 27 27 27 28 28 28 28 29 29 30 30 31 31 32 34 34 35 34 32 30 29 28 28 29 30 31 32 34 35 36 37 38 39 40 40 41 41 41 42 43 44 45 47 48 48 48 48 47 46 46 45 44 41 37 33 28 25 24 23 22 22 21 20 18 16 15 15 15 15 16 15 14 13 12 10 8
30 29 29 27 26 26 25 25 26 26 27 27 27 27 27 27 28 28 29 30 30 31 32 33 34 35 35 34 32 30 29 28 28 28 29 30 32 34 35 36 37 38 38 39 40 41 41 41 41 42 43 44 46 46 47 47 47 47 45 44 43 42 40 37 33 29 25 23 22 21 21 21 20 18 16 14 14 14 16 16 16 15 14 12 10 9
31 30 28 27 26 25 25 25 26 26 27 27 27 27 27 27 28 29 29 30 31 31 32 33 34 35 35 34 32 31 30 29 28 28 28 29 31 33 34 36 36 37 38 39 39 40 41 41 42 42 43 44 45 45 45 46 46 46 45 44 42 41 38 35 31 28 25 23 21 21 20 20 19 18 16 14 14 14 16 17 17 16 15 13 11 9
31 30 28 27 26 25 26 26 26 26 27 27 27 27 27 27 28 29 30 30 31 32 32 33 34 34 34 34 33 32 31 30 29 28 28 29 30 32 34 35 36 37 37 38 38 39 40 40 41 42 43 44 44 44 44 44 44 44 44 43 42 40 37 34 30 26 24 22 21 20 20 19 19 18 16 14 13 14 16 18 18 17 16 14 12 9
31 29 27 26 26 26 26 26 26 26 26 26 26 27 27 28 28 29 30 31 31 32 33 33 34 34 34 34 33 32 32 31 30 29 29 29 30 32 33 34 35 36 36 37 38 38 38 39 40 41 43 44 44 44 43 43 43 43 43 43 42 41 38 34 30 26 23 22 21 20 19 18 18 17 16 14 14 14 17 18 18 18 16 15 13 10
30 28 28 27 27 27 26 26 25 25 26 26 27 27 27 28 29 30 31 31 32 32 33 33 34 34 34 33 33 32 32 31 31 30 30 30 31 32 33 34 35 35 36 37 37 37 37 38 39 40 42 43 44 44 43 42 42 42 42 42 42 41 38 35 31 27 24 22 20 20 19 18 17 17 15 14 13 14 16 18 20 19 18 16 14 11
29 28 28 27 27 26 26 25 25 25 26 27 27 28 28 29 30 30 31 32 32 33 33 33 33 34 34 33 32 32 31 31 31 31 31 31 32 33 34 35 35 36 36 37 37 37 37 37 37 39 40 42 43 44 44 43 42 42 42 41 41 40 38 35 32 28 24 22 20 19 18 18 17 16 15 14 13 13 15 18 20 20 19 17 15 12
29 28 28 27 26 26 25 25 25 26 27 27 28 28 29 29 30 31 31 32 32 32 33 33 33 34 34 33 32 31 31 31 31 31 31 32 33 34 35 36 37 37 38 38 38 37 37 37 37 37 38 40 42 43 44 43 43 42 41 40 39 38 37 35 32 28 25 22 20 19 18 17 16 15 15 14 13 13 14 17 20 21 21 19 16 13
28 27 27 26 26 25 25 25 26 27 27 28 28 29 29 30 30 31 31 32 32 32 32 33 33 34 33 33 32 31 31 31 31 31 31 32 33 34 35 36 37 38 39 40 40 40 39 39 38 38 37 38 40 42 43 43 43 42 41 39 38 37 36 35 32 29 26 23 20 18 17 16 16 15 14 14 13 12 14 16 19 21 22 20 18 15
Wind_Direction
286 285 284 283 283 284 284 284 283 282 281 279 277 275 273 272 272 273 275 277 279 281 283 286 288 291 293 295 296 297 297 298 298 299 299 300 300 300 301 301 301 301 301 300 300 300 299 299 299 298 298 297 296 296 295 294 292 291 290 288 286 284 282 280 278 276 275 274 274 274 273 273 273 274 274 273 273 272 272 271 271 270 269 268 267 265
284 283 282 282 282 283 283 283 282 281 279 277 275 273 271 271 271 272 274 276 278 281 283 286 288 290 292 294 295 296 296 297 298 299 300 301 301 302 302 303 303 303 303 302 302 302 302 301 301 300 299 299 298 296 295 294 293 291 290 289 287 286 284 282 281 279 278 278 277 277 276 275 274 274 272 272 271 271 271 270 269 268 267 266 266 264
283 282 282 282 282 281 282 281 281 279 278 276 274 272 270 270 270 272 273 276 278 281 283 286 288 290 292 293 294 295 296 297 299 300 301 302 303 304 305 305 305 305 305 304 304 304 303 303 302 301 300 299 298 296 295 294 293 291 290 289 288 286 285 284 283 282 281 280 280 279 277 276 274 272 270 269 269 269 269 268 268 267 266 265 265 264
282 282 282 281 281 281 281 280 280 278 277 275 273 271 270 270 270 271 273 276 278 281 283 285 287 289 291 292 293 294 296 298 300 302 303 304 305 306 307 307 306 306 305 305 305 304 304 303 302 301 300 298 297 296 294 293 292 291 290 289 287 286 285 284 283 282 281 280 279 278 277 275 272 270 269 268 268 267 266 266 266 265 265 264 263 263
281 281 281 280 280 280 280 280 279 277 276 274 272 270 269 269 270 271 273 276 278 280 282 284 286 288 290 291 293 295 297 300 302 304 305 307 308 308 308 308 307 306 306 306 305 305 304 303 302 301 299 298 296 295 294 293 292 291 289 288 287 286 285 284 283 282 281 280 279 278 277 274 272 270 268 268 267 266 265 264 263 263 263 262 262 261
280 280 279 279 279 279 279 279 278 277 275 273 271 270 269 269 270 271 273 275 277 279 282 284 286 288 290 292 294 297 300 302 304 306 307 309 309 309 309 308 307 307 307 307 306 306 305 303 302 300 299 297 296 295 294 293 292 291 290 289 288 287 286 285 284 282 281 280 279 278 276 274 271 269 268 267 266 266 265 263 263 262 262 262 261 261
279 278 278 278 278 278 279 278 277 276 274 272 271 269 269 269 270 271 273 275 277 280 282 284 286 288 290 293 296 299 302 304 306 308 309 310 310 310 309 309 308 308 308 308 307 306 304 303 301 300 299 298 297 296 295 294 293 292 291 290 289 288 287 285 284 283 281 280 279 278 276 274 272 270 269 268 267 266 265 264 263 263 263 262 262 262
278 277 276 277 277 278 278 278 277 275 274 272 270 269 269 269 270 272 274 276 278 280 283 285 286 288 291 294 298 302 305 307 308 309 310 311 312 311 311 310 309 309 309 308 307 306 305 303 302 301 300 300 299 298 297 296 295 293 292 291 290 289 288 286 285 283 282 280 279 278 277 275 273 272 270 269 268 267 266 265 265 264 263 263 262 262
276 275 275 276 276 277 278 278 277 275 273 272 271 270 270 270 271 273 274 277 279 281 284 285 287 289 292 297 301 305 307 309 310 311 313 313 313 313 312 311 310 310 309 309 308 307 306 305 304 304 303 302 301 300 299 298 296 295 294 293 291 290 289 287 286 284 282 280 279 278 277 276 275 274 272 271 270 268 267 267 266 265 264 264 263 263
274 274 274 275 276 277 278 277 276 274 273 272 272 271 271 272 273 274 276 277 280 282 284 286 289 292 296 300 304 307 309 310 311 312 314 314 314 313 312 311 311 311 311 310 310 309 309 309 308 307 306 305 304 303 301 300 298 297 296 294 293 292 291 289 287 285 283 281 280 278 278 277 276 275 274 273 271 270 269 268 268 267 266 265 264 263
273 273 273 274 276 277 277 277 275 273 272 271 271 272 272 273 274 276 277 278 280 282 285 288 291 295 300 304 308 310 310 311 311 312 314 314 314 313 312 311 312 312 313 313 313 313 313 312 312 311 309 308 306 305 303 301 300 298 297 296 295 294 293 291 289 287 285 282 280 279 278 277 277 276 275 274 273 272 272 271 269 268 267 266 265 264
272 272 273 274 275 276 277 276 275 273 271 271 271 271 272 273 274 276 278 280 281 284 286 289 293 298 304 308 311 311 311 311 311 312 313 314 313 313 313 313 314 315 316 316 316 316 316 315 314 313 311 310 308 306 305 303 301 300 299 298 297 296 294 293 291 289 286 283 281 280 278 278 277 277 276 276 275 274 273 272 271 269 268 268 267 266
271 272 273 274 275 276 276 276 274 273 271 271 271 271 271 272 274 276 279 281 284 286 289 292 296 301 306 310 312 312 311 310 311 312 313 314 315 315 315 316 317 318 318 318 318 318 318 317 315 313 312 311 309 308 306 305 303 301 300 298 297 296 295 293 292 289 287 284 282 280 279 278 277 278 278 278 277 275 274 274 273 272 271 270 269 268
270 271 272 274 275 276 276 275 274 273 272 271 271 270 271 272 275 277 280 283 286 289 292 295 299 304 308 311 312 312 311 310 311 312 314 315 317 318 319 319 319 320 320 319 319 319 319 317 315 314 312 312 311 309 308 306 304 303 301 299 297 296 295 293 292 290 288 285 283 281 279 278 277 277 277 277 276 274 274 274 275 275 274 273 271 269
269 270 272 273 275 276 275 275 273 272 272 271 270 270 271 273 276 278 281 284 287 291 295 298 302 306 310 313 313 312 311 311 312 313 315 317 319 320 320 320 320 320 320 320 320 319 319 317 315 314 313 312 312 312 310 309 307 305 303 301 300 298 296 295 293 291 289 286 284 282 280 278 277 276 275 274 273 271 271 272 272 273 273 271 270 268
268 269 271 273 275 275 275 274 273 272 271 271 270 271 272 275 276 278 281 284 288 293 297 300 303 307 310 313 313 312 311 311 313 315 316 318 320 321 321 320 319 319 320 320 320 319 318 316 314 313 313 313 314 313 312 311 310 308 307 305 303 302 300 298 296 293 291 288 286 284 282 280 278 277 276 274 272 270 267 267 267 268 268 268 267 266
267 268 270 272 274 274 274 273 272 272 272 271 271 272 273 275 276 278 281 285 289 294 298 301 305 308 311 312 312 312 312 312 314 315 317 318 320 322 322 320 319 319 320 320 320 319 317 315 314 313 313 314 314 313 313 312 311 310 308 307 306 304 303 301 298 296 293 290 288 285 283 281 280 279 277 276 275 272 268 265 263 262 264 264 265 265
266 268 270 272 273 273 273 272 271 272 272 272 273 273 273 273 274 277 281 286 290 295 298 301 305 308 310 311 311 312 313 313 315 316 317 318 320 322 322 320 318 318 319 320 320 319 316 314 313 313 312 312 312 312 312 311 310 309 308 307 306 305 304 302 300 298 295 292 289 286 284 282 281 279 279 278 277 275 272 269 265 262 262 262 263 263
265 267 269 271 272 272 272 271 271 272 274 274 274 273 272 272 273 277 282 287 291 295 298 301 304 307 308 308 310 312 313 314 315 316 317 318 319 321 322 320 318 318 319 320 320 318 316 313 312 311 310 310 310 310 310 309 308 307 306 305 304 303 302 301 300 298 296 293 291 288 286 284 282 280 279 278 278 277 276 274 271 267 264 262 262 263
265 267 269 271 272 271 270 271 272 274 274 274 272 270 270 271 274 279 284 289 292 295 298 300 303 305 305 306 308 312 314 315 316 317 317 317 319 321 321 319 318 318 319 320 319 317 315 312 310 309 308 308 309 309 310 309 309 307 306 305 303 302 300 299 298 297 295 294 292 290 287 285 283 281 280 279 278 278 278 278 276 273 270 266 265 264
264 267 269 271 271 270 270 270 272 272 272 271 270 269 270 272 276 281 285 289 292 295 297 299 301 303 304 306 309 312 315 316 317 317 316 316 317 320 320 319 318 317 318 319 318 316 314 311 309 308 308 308 309 310 311 310 310 309 308 306 304 302 300 298 297 295 294 293 292 291 289 287 285 282 281 279 279 279 279 278 277 275 272 269 267 265
264 267 269 270 269 268 269 269 269 269 268 268 268 269 271 275 279 283 286 289 291 293 295 297 299 301 303 306 310 313 315 316 317 316 316 315 316 318 320 318 317 317 318 318 318 316 313 311 309 308 308 309 310 311 312 312 311 311 310 309 307 305 302 299 297 295 294 293 292 291 290 288 286 283 281 279 277 275 273 271 270 270 270 269 267 265
264 266 267 267 267 266 266 266 266 265 266 267 268 270 273 277 281 284 287 289 290 292 294 296 298 300 303 306 310 313 315 316 316 315 315 314 315 317 319 318 317 317 317 318 317 316 313 311 310 308 308 309 311 312 313 313 313 313 312 311 310 308 305 302 298 296 294 292 292 291 290 288 286 284 281 278 274 269 265 263 264 266 268 269 268 265
262 264 264 264 263 263 263 263 263 264 265 267 269 272 275 278 281 283 285 286 288 290 292 294 296 300 304 307 310 313 314 315 315 314 313 313 314 316 318 318 317 317 317 317 317 316 314 312 310 310 310 311 312 314 315 316 316 315 315 313 312 310 307 304 301 298 295 294 293 292 290 288 286 283 280 277 273 270 267 263 262 263 266 268 267 266
262 262 262 261 261 260 261 261 262 264 266 268 271 273 276 278 279 281 282 284 286 289 291 295 298 302 305 308 310 311 313 313 313 313 313 312 313 315 317 318 317 317 317 317 317 316 314 313 312 311 312 313 314 315 317 318 319 318 317 316 314 312 310 307 304 301 298 297 295 294 292 290 287 284 281 278 275 272 270 268 266 265 266 266 266 264
265 264 263 262 261 261 261 262 264 266 268 270 272 274 275 276 278 279 281 283 286 290 294 297 300 303 306 307 309 310 312 313 313 313 313 312 312 314 317 318 317 317 317 317 317 316 316 315 314 314 314 314 315 317 319 321 322 322 321 319 317 315 312 310 307 304 301 299 297 296 294 292 289 285 282 278 275 274 274 274 273 271 269 266 264 262
267 268 267 266 265 264 264 265 267 268 270 272 273 274 275 276 277 278 280 283 287 291 294 297 300 303 305 306 308 309 311 312 313 313 312 311 311 313 316 318 318 317 317 317 317 317 317 317 317 316 316 316 316 318 320 323 324 324 324 322 320 317 314 311 308 305 302 300 299 297 295 293 290 286 282 279 274 272 272 272 271 270 269 266 263 261
265 267 267 267 267 266 266 267 269 270 271 273 273 274 274 275 276 279 282 285 287 290 292 295 299 301 304 305 306 308 309 312 313 313 312 310 311 313 316 318 318 318 317 317 317 317 318 319 319 319 319 318 318 320 322 324 325 325 325 323 321 318 315 312 309 306 304 302 300 298 296 294 291 287 284 280 275 269 264 260 259 260 260 259 258 259
260 262 264 265 265 266 266 267 269 270 272 272 272 272 272 273 275 277 280 283 285 287 290 293 297 300 302 303 305 306 308 312 313 313 311 310 310 313 316 318 319 319 318 317 317 317 318 320 321 322 321 321 321 321 323 324 325 325 325 324 323 321 318 314 311 308 306 304 302 300 298 296 293 290 286 282 277 271 264 257 253 250 249 250 251 253
257 259 260 261 262 263 265 266 268 270 271 271 270 270 270 270 271 273 275 279 281 284 287 291 294 297 300 302 303 305 308 311 313 312 310 309 311 313 316 317 319 319 319 318 318 318 319 321 322 323 323 322 322 323 323 324 325 325 325 325 324 323 321 317 314 311 308 306 304 302 300 298 295 291 288 284 280 274 267 260 255 251 248 247 247 249
255 256 257 258 260 262 263 265 267 268 269 268 268 267 267 267 268 270 273 276 279 282 285 289 292 295 298 300 302 304 307 311 312 311 309 309 311 313 316 317 319 320 320 319 319 319 319 321 323 323 323 323 323 323 324 324 325 325 325 326 326 325 323 320 317 313 311 308 306 304 302 299 296 292 289 285 281 276 270 263 258 253 250 247 246 246
253 254 255 256 258 260 262 264 266 267 267 266 266 265 265 266 268 270 272 275 278 280 283 287 290 294 296 298 300 303 306 309 310 309 309 309 311 313 316 317 319 320 320 319 319 318 319 320 322 323 323 323 323 324 324 325 325 326 326 327 327 326 325 322 319 316 313 310 308 306 304 300 296 292 289 286 282 277 270 263 257 252 249 246 243 243
251 252 253 255 257 259 261 263 264 265 266 265 265 265 265 266 267 269 271 273 275 278 281 285 289 292 295 297 299 301 304 307 309 309 309 310 312 314 316 317 319 320 320 319 318 318 318 319 321 322 323 324 324 324 325 325 326 327 328 328 328 327 326 324 321 318 315 313 311 309 306 301 297 292 289 285 281 275 269 262 255 250 247 245 244 246
249 250 251 253 255 257 259 261 263 264 265 265 264 264 264 264 266 267 269 271 273 276 280 283 287 290 293 296 298 300 303 306 308 309 310 311 312 314 316 317 319 319 319 319 318 318 317 318 320 321 322 323 324 325 325 326 326 327 328 329 329 329 328 326 323 320 317 316 314 312 308 303 298 293 289 285 280 273 266 259 252 248 245 244 246 253
249 250 251 252 254 256 258 260 262 264 265 264 264 263 263 263 264 265 266 269 272 275 278 282 286 289 292 295 297 299 302 305 308 309 311 312 313 314 315 317 318 319 319 318 318 318 318 318 319 321 322 323 324 324 325 326 327 328 329 329 330 330 329 328 325 322 320 318 317 315 311 306 301 296 291 285 279 271 262 255 249 245 243 242 245 254
249 250 251 252 254 255 258 260 262 264 265 265 264 263 262 262 262 263 265 268 271 274 278 282 285 288 291 294 296 298 301 304 307 309 311 312 313 313 314 316 317 318 318 318 318 318 318 318 319 320 321 322 323 324 325 326 326 327 329 329 330 330 330 329 327 324 322 321 319 317 314 309 304 298 292 286 278 269 260 252 246 242 240 238 241 250
251 251 252 254 255 257 259 261 264 266 267 267 265 264 262 261 261 263 265 267 271 274 278 281 284 287 290 292 295 297 300 304 307 310 312 312 313 313 314 315 316 317 317 317 317 317 317 318 319 320 321 322 323 324 325 325 326 327 328 329 330 330 331 330 328 326 324 322 321 319 317 313 308 302 295 287 278 268 258 250 244 239 237 236 240 250
252 253 255 256 257 259 262 264 267 269 269 267 265 263 261 261 261 262 265 268 271 274 278 280 283 286 289 291 294 297 300 304 308 311 312 312 312 312 313 314 315 316 316 316 316 316 317 317 318 319 320 321 322 323 324 326 327 328 328 328 329 330 331 330 329 327 325 323 321 320 318 315 311 305 298 289 278 268 258 250 243 238 237 239 245 257
254 256 257 259 260 263 265 267 269 269 267 265 263 262 261 261 262 263 266 269 272 274 277 280 282 285 287 290 293 296 300 304 308 310 312 312 311 311 311 312 313 314 315 316 316 316 316 317 317 318 319 321 322 323 324 326 327 328 328 327 327 328 330 331 330 327 325 323 321 319 318 315 312 307 300 290 279 268 258 250 243 239 239 242 250 263
256 258 259 261 263 264 266 267 267 266 265 263 262 261 261 262 263 265 267 269 272 274 277 279 281 284 286 289 292 295 299 303 307 310 311 311 310 310 310 311 312 313 314 315 316 316 316 316 317 318 319 320 321 323 324 326 327 328 327 327 326 327 329 330 330 328 325 323 320 318 316 315 312 308 302 292 280 269 259 250 243 238 238 244 252 266
258 259 260 261 262 264 265 265 265 265 264 264 264 264 264 264 265 267 268 270 272 274 276 278 280 282 285 287 290 294 299 303 306 308 309 309 309 309 309 310 311 312 314 315 316 316 316 316 317 317 318 319 320 322 324 326 327 327 327 326 326 326 328 329 329 328 326 323 320 318 316 314 312 309 303 293 282 270 259 251 243 238 237 243 255 268
260 260 260 260 261 262 264 265 266 267 267 267 267 267 267 267 268 268 269 270 272 273 275 277 279 281 283 286 289 293 297 301 304 306 307 308 308 308 308 309 310 311 313 314 316 316 317 317 317 317 318 319 320 322 324 325 326 326 325 325 325 325 326 327 328 328 326 324 321 318 315 313 311 309 303 294 282 269 257 249 242 238 236 240 251 268
262 261 260 261 262 264 266 268 270 271 272 272 271 271 270 270 269 269 270 271 272 273 274 276 278 280 283 285 289 292 295 298 301 304 306 307 308 308 308 308 309 311 313 314 315 316 317 317 317 318 318 319 320 321 323 325 325 325 324 325 325 325 326 327 327 327 325 323 320 317 314 312 310 308 303 294 280 266 254 246 240 236 235 239 247 262
263 262 262 263 265 267 270 272 274 275 275 274 273 272 272 271 271 271 271 271 272 273 274 275 277 280 282 285 288 290 292 295 298 301 304 306 307 307 307 308 309 311 312 314 315 316 317 317 318 318 319 319 320 321 323 324 324 323 323 324 324 325 326 327 327 326 324 322 320 317 314 311 309 307 303 293 279 264 252 242 236 233 233 236 243 255
263 263 264 265 268 271 273 275 275 275 274 273 273 273 273 273 272 272 272 272 272 272 273 275 277 279 281 284 287 289 291 293 296 300 303 305 306 306 307 308 309 310 312 313 314 315 316 317 318 319 319 319 320 321 322 323 323 322 322 323 324 324 325 325 325 325 323 321 319 317 314 311 309 306 302 293 278 262 250 240 233 229 229 231 237 247
261 262 264 266 269 271 272 272 273 273 273 273 274 274 274 273 273 272 272 272 272 272 273 274 276 278 281 284 286 288 290 292 295 298 302 304 305 306 306 307 308 310 311 312 313 314 316 317 317 318 319 319 320 321 322 323 322 322 322 322 323 323 323 324 324 323 321 320 318 317 314 311 308 306 302 294 280 262 248 238 231 227 226 227 231 238
259 261 263 265 267 268 269 270 271 272 274 275 275 275 275 274 273 272 272 271 272 272 273 274 276 278 280 283 286 288 290 293 295 298 301 304 305 305 305 306 307 308 310 311 312 313 315 316 317 318 318 318 319 320 322 323 323 323 322 322 322 322 323 324 324 323 321 319 318 316 314 311 308 305 302 294 280 264 249 239 232 228 226 226 227 232
257 259 261 263 264 266 268 270 273 275 277 277 277 276 275 274 273 272 272 272 272 272 273 274 276 278 280 283 285 288 291 293 296 299 302 304 305 305 305 306 306 307 308 309 311 312 314 315 316 317 317 318 319 320 322 323 324 324 323 323 323 323 323 324 324 323 321 318 316 315 314 311 308 305 300 291 279 265 252 242 235 230 228 227 227 228
256 258 260 263 265 268 271 274 277 278 279 278 278 276 275 274 273 272 272 272 272 273 274 275 277 278 280 282 285 288 291 294 296 299 302 304 305 306 306 306 306 307 307 308 310 311 313 315 316 317 317 318 319 321 322 324 325 325 324 324 323 323 323 323 323 322 320 317 315 314 312 310 308 304 299 290 278 264 252 244 237 232 230 228 227 228
256 259 262 265 268 271 275 277 278 279 278 278 277 276 274 273 272 272 272 273 273 274 275 276 277 279 281 283 285 288 291 293 296 299 302 304 306 307 307 307 307 308 308 309 310 311 313 315 316 317 319 320 320 321 323 324 325 325 324 323 323 322 321 321 321 320 319 316 315 313 311 308 305 301 296 289 277 262 249 242 238 234 231 229 228 227
258 261 264 267 270 273 275 277 278 278 277 277 276 275 274 273 272 272 272 273 274 274 275 276 278 279 281 284 286 288 291 293 296 299 302 304 306 307 307 308 308 309 310 311 312 313 314 316 317 319 320 321 321 322 323 324 325 325 324 322 321 321 320 320 319 318 317 315 314 312 310 306 302 298 293 287 276 261 246 239 237 235 232 230 228 227
Height
2951 2951 2951 2950 2949 2949 2949 2949 2948 2947 2946 2946 2946 2946 2945 2944 2943 2943 2942 2942 2941 2940 2940 2939 2939 2938 2938 2938 2937 2936 2935 2934 2933 2931 2930 2929 2927 2926 2924 2922 2920 2918 2916 2915 2913 2911 2909 2907 2906 2904 2902 2901 2899 2898 2897 2896 2894 2893 2891 2891 2890 2889 2888 2889 2887 2886 2884 2883 2883 2882 2881 2881 2880 2880 2879 2878 2877 2876 2876 2875 2875 2874 2873 2872 2872 2872
2947 2947 2947 2946 2946 2946 2945 2945 2945 2944 2943 2943 2943 2943 2942 2941 2941 2940 2940 2939 2938 2937 2937 2936 2936 2935 2935 2935 2934 2933 2932 2931 2930 2928 2927 2926 2924 2922 2920 2919 2917 2915 2913 2911 2909 2907 2905 2904 2902 2900 2898 2897 2895 2894 2892 2891 2889 2888 2886 2885 2884 2882 2881 2881 2880 2879 2878 2877 2877 2876 2876 2876 2875 2875 2873 2872 2871 2871 2870 2869 2868 2868 2867 2866 2866 2866
2943 2943 2943 2943 2943 2942 2942 2942 2941 2941 2940 2940 2940 2940 2939 2938 2938 2937 2937 2936 2935 2935 2934 2933 2933 2932 2932 2932 2931 2931 2929 2928 2926 2925 2924 2922 2920 2919 2917 2915 2913 2911 2909 2907 2905 2903 2902 2900 2898 2896 2894 2893 2891 2889 2888 2886 2885 2884 2882 2881 2880 2878 2877 2876 2875 2874 2873 2872 2871 2871 2870 2870 2870 2868 2866 2866 2865 2865 2864 2863 2862 2862 2861 2861 2861 2860
2939 2939 2939 2939 2939 2938 2938 2939 2938 2937 2937 2936 2936 2936 2936 2935 2934 2934 2934 2933 2932 2932 2931 2931 2930 2929 2929 2928 2928 2927 2926 2924 2923 2922 2920 2918 2917 2915 2913 2911 2910 2907 2906 2904 2902 2900 2898 2896 2894 2893 2891 2889 2887 2886 2884 2882 2881 2880 2878 2877 2876 2874 2873 2871 2870 2869 2868 2867 2866 2865 2863 2863 2862 2860 2859 2859 2859 2858 2857 2857 2857 2856 2856 2856 2855 2855
2935 2936 2936 2936 2935 2935 2935 2935 2935 2934 2933 2933 2933 2932 2932 2931 2931 2931 2931 2930 2930 2929 2928 2928 2927 2926 2926 2925 2925 2923 2922 2921 2919 2918 2916 2915 2913 2911 2910 2908 2906 2904 2902 2900 2898 2896 2895 2893 2891 2889 2887 2886 2884 2882 2881 2879 2877 2876 2874 2873 2871 2870 2868 2867 2866 2864 2862 2861 2860 2858 2857 2856 2855 2854 2853 2853 2852 2852 2851 2851 2851 2850 2850 2850 2850 2850
2932 2932 2932 2931 2931 2931 2931 2931 2931 2931 2930 2930 2929 2929 2929 2928 2928 2928 2927 2927 2926 2926 2925 2925 2924 2924 2923 2922 2921 2920 2918 2917 2916 2914 2913 2911 2910 2908 2906 2904 2902 2900 2898 2896 2895 2893 2891 2889 2887 2885 2884 2882 2880 2879 2877 2875 2874 2872 2870 2868 2867 2865 2864 2862 2860 2859 2857 2856 2854 2853 2852 2851 2850 2849 2847 2847 2846 2846 2845 2845 2845 2844 2844 2844 2844 2844
2928 2928 2928 2928 2928 2928 2928 2928 2928 2928 2927 2926 2926 2926 2925 2925 2925 2925 2924 2924 2923 2923 2922 2922 2921 2921 2920 2919 2917 2916 2914 2913 2911 2910 2909 2908 2906 2904 2902 2901 2898 2896 2895 2893 2891 2889 2888 2886 2884 2882 2880 2878 2876 2875 2873 2871 2869 2867 2866 2864 2862 2861 2859 2857 2855 2853 2851 2850 2849 2847 2846 2845 2844 2843 2842 2841 2841 2840 2840 2839 2839 2839 2839 2839 2839 2839
2924 2924 2924 2924 2924 2924 2924 2925 2925 2924 2923 2922 2922 2921 2921 2921 2921 2921 2921 2921 2920 2920 2919 2918 2918 2918 2917 2916 2914 2912 2910 2908 2907 2906 2905 2904 2902 2900 2898 2896 2895 2893 2891 2890 2888 2886 2884 2882 2880 2878 2876 2874 2872 2871 2869 2867 2865 2863 2861 2859 2857 2856 2854 2851 2850 2848 2846 2845 2843 2842 2841 2840 2839 2838 2837 2836 2836 2835 2834 2834 2834 2834 2834 2834 2833 2833
2920 2920 2921 2921 2921 2921 2921 2921 2921 2921 2920 2919 2918 2918 2918 2918 2918 2918 2917 2917 2917 2916 2916 2915 2914 2914 2914 2912 2910 2908 2906 2904 2903 2901 2900 2899 2897 2896 2894 2892 2891 2889 2887 2886 2884 2882 2880 2878 2876 2874 2872 2870 2868 2866 2864 2862 2860 2858 2856 2854 2852 2850 2848 2846 2845 2843 2841 2840 2838 2837 2836 2835 2834 2833 2832 2831 2831 2830 2829 2829 2828 2828 2828 2828 2828 2828
2916 2916 2917 2917 2917 2917 2917 2917 2918 2918 2917 2915 2915 2915 2915 2915 2915 2914 2914 2914 2913 2913 2912 2911 2911 2910 2910 2909 2907 2904 2902 2900 2899 2898 2897 2896 2894 2892 2890 2888 2886 2885 2883 2881 2880 2878 2876 2873 2871 2869 2867 2865 2863 2861 2859 2857 2855 2853 2851 2849 2847 2845 2844 2842 2840 2838 2836 2835 2833 2832 2831 2830 2829 2828 2827 2826 2826 2825 2824 2824 2823 2823 2823 2822 2823 2823
2911 2912 2913 2913 2913 2914 2914 2914 2914 2914 2913 2912 2911 2911 2912 2911 2911 2911 2910 2910 2910 2910 2909 2908 2907 2906 2905 2904 2902 2901 2899 2896 2895 2895 2894 2892 2891 2889 2886 2885 2883 2881 2879 2877 2875 2873 2871 2869 2866 2865 2862 2861 2859 2856 2855 2852 2850 2848 2846 2844 2842 2840 2839 2837 2835 2833 2832 2830 2829 2827 2826 2825 2824 2823 2822 2821 2821 2820 2819 2819 2818 2818 2817 2817 2817 2817
2908 2908 2909 2909 2910 2910 2910 2911 2911 2911 2910 2909 2909 2909 2909 2908 2908 2907 2906 2906 2906 2906 2905 2904 2904 2903 2902 2900 2898 2896 2895 2893 2892 2891 2890 2889 2887 2885 2883 2880 2878 2876 2875 2872 2871 2869 2866 2864 2862 2860 2858 2856 2854 2852 2850 2848 2846 2844 2842 2840 2838 2836 2834 2832 2831 2829 2827 2826 2824 2823 2822 2821 2819 2818 2817 2816 2816 2815 2815 2814 2814 2813 2813 2812 2812 2812
2904 2905 2905 2906 2906 2907 2907 2907 2907 2907 2906 2906 2906 2906 2906 2905 2904 2903 2902 2902 2902 2902 2901 2900 2900 2899 2898 2897 2895 2893 2891 2889 2888 2887 2886 2885 2883 2881 2878 2875 2873 2871 2870 2867 2866 2864 2862 2860 2858 2856 2855 2852 2850 2848 2846 2844 2842 2840 2838 2836 2834 2832 2830 2828 2826 2825 2823 2821 2820 2819 2817 2816 2815 2814 2813 2812 2811 2811 2810 2810 2809 2809 2808 2808 2808 2808
2901 2901 2901 2902 2902 2903 2904 2904 2904 2904 2904 2903 2903 2903 2902 2902 2901 2900 2899 2898 2898 2898 2897 2896 2895 2895 2895 2894 2892 2890 2887 2885 2884 2883 2882 2881 2879 2876 2873 2871 2869 2867 2866 2863 2861 2860 2859 2856 2854 2852 2851 2849 2847 2845 2843 2841 2839 2836 2834 2832 2830 2828 2826 2824 2822 2821 2819 2817 2816 2814 2813 2812 2811 2810 2809 2808 2807 2806 2807 2806 2806 2805 2805 2805 2805 2804
2897 2898 2898 2898 2899 2900 2901 2901 2901 2901 2901 2901 2900 2899 2899 2898 2898 2897 2896 2895 2895 2894 2893 2891 2891 2891 2891 2890 2889 2887 2884 2881 2879 2878 2877 2876 2875 2873 2870 2867 2865 2864 2862 2860 2858 2856 2855 2853 2851 2849 2847 2846 2844 2842 2840 2837 2835 2833 2831 2829 2826 2824 2822 2820 2818 2816 2815 2813 2812 2810 2809 2808 2807 2806 2804 2803 2802 2802 2804 2804 2803 2802 2801 2801 2800 2799
2894 2894 2894 2895 2896 2897 2897 2897 2897 2897 2897 2897 2897 2896 2896 2895 2895 2894 2893 2892 2891 2891 2890 2888 2886 2886 2886 2887 2886 2884 2881 2878 2876 2874 2873 2871 2871 2870 2867 2864 2861 2860 2859 2857 2855 2853 2852 2850 2848 2846 2845 2843 2841 2839 2837 2834 2832 2830 2827 2825 2823 2821 2819 2816 2815 2813 2811 2809 2807 2806 2804 2803 2802 2801 2800 2799 2798 2797 2798 2798 2798 2797 2797 2796 2795 2794
2891 2891 2891 2892 2893 2893 2894 2894 2894 2894 2894 2894 2894 2893 2893 2892 2891 2891 2890 2889 2888 2887 2886 2885 2883 2882 2881 2883 2883 2882 2879 2875 2872 2870 2869 2867 2867 2866 2864 2861 2858 2856 2855 2854 2852 2851 2849 2847 2845 2843 2841 2840 2838 2836 2834 2831 2829 2826 2824 2821 2819 2817 2815 2813 2811 2809 2806 2805 2803 2802 2800 2799 2797 2796 2795 2794 2793 2792 2791 2791 2790 2791 2792 2791 2790 2789
2887 2888 2888 2889 2890 2891 2891 2891 2891 2891 2891 2891 2891 2890 2890 2889 2889 2888 2887 2886 2886 2884 2883 2882 2881 2879 2878 2878 2879 2879 2876 2872 2869 2866 2865 2864 2863 2863 2861 2858 2855 2853 2852 2851 2849 2848 2846 2844 2842 2840 2838 2837 2835 2833 2831 2829 2826 2824 2821 2818 2816 2813 2811 2809 2806 2804 2802 2801 2799 2797 2796 2794 2793 2791 2790 2789 2788 2787 2786 2786 2785 2785 2786 2786 2785 2784
2884 2885 2886 2886 2887 2888 2888 2888 2888 2888 2888 2888 2887 2887 2886 2886 2886 2885 2884 2883 2882 2881 2880 2878 2877 2877 2876 2876 2876 2875 2873 2870 2866 2863 2861 2860 2859 2859 2859 2856 2852 2850 2849 2848 2846 2845 2842 2841 2839 2838 2836 2834 2832 2831 2828 2826 2823 2821 2818 2816 2813 2810 2807 2805 2803 2801 2798 2796 2794 2792 2791 2789 2788 2787 2786 2785 2784 2783 2782 2781 2781 2781 2781 2780 2780 2779
2881 2882 2883 2884 2884 2885 2885 2885 2886 2886 2885 2885 2884 2884 2883 2883 2883 2882 2881 2880 2879 2878 2877 2876 2875 2875 2875 2874 2873 2872 2870 2867 2863 2861 2858 2856 2856 2856 2856 2853 2849 2847 2846 2845 2844 2842 2840 2838 2836 2835 2833 2831 2830 2827 2825 2823 2820 2818 2815 2812 2810 2807 2804 2802 2799 2796 2794 2792 2790 2788 2787 2785 2784 2782 2781 2780 2779 2779 2778 2778 2777 2777 2777 2776 2776 2775
2878 2879 2880 2881 2881 2881 2881 2882 2883 2883 2882 2881 2881 2881 2880 2880 2880 2879 2878 2877 2876 2875 2874 2873 2872 2872 2872 2871 2870 2869 2867 2864 2861 2857 2855 2853 2853 2853 2852 2850 2846 2844 2842 2842 2841 2839 2837 2835 2833 2832 2830 2829 2826 2825 2822 2820 2817 2815 2812 2809 2807 2804 2801 2798 2796 2793 2791 2788 2786 2784 2783 2781 2780 2778 2777 2776 2776 2775 2775 2775 2775 2775 2774 2772 2771 2770
2875 2876 2878 2878 2878 2878 2879 2880 2880 2880 2879 2879 2878 2877 2877 2877 2876 2876 2875 2874 2873 2872 2871 2871 2870 2870 2869 2868 2867 2866 2864 2861 2858 2855 2852 2850 2849 2849 2850 2847 2843 2841 2840 2839 2837 2836 2834 2832 2830 2829 2827 2826 2824 2821 2819 2817 2814 2811 2809 2806 2803 2800 2797 2795 2792 2789 2787 2784 2782 2780 2779 2777 2776 2774 2773 2773 2773 2773 2771 2771 2770 2769 2768 2767 2766 2766
2873 2874 2875 2876 2876 2876 2876 2876 2877 2877 2876 2876 2875 2874 2874 2873 2873 2872 2871 2871 2870 2869 2868 2868 2867 2867 2866 2865 2864 2863 2861 2859 2856 2853 2850 2847 2846 2846 2846 2844 2841 2838 2836 2836 2834 2832 2831 2829 2827 2826 2824 2822 2821 2818 2816 2813 2811 2808 2805 2802 2800 2796 2794 2791 2788 2786 2783 2781 2779 2776 2775 2773 2772 2771 2770 2769 2767 2766 2764 2763 2764 2764 2764 2763 2762 2762
2870 2871 2873 2873 2873 2873 2873 2874 2874 2874 2874 2873 2872 2871 2871 2871 2870 2869 2868 2868 2867 2866 2866 2865 2864 2864 2863 2862 2861 2860 2859 2857 2854 2851 2848 2845 2843 2843 2843 2841 2838 2835 2833 2833 2831 2829 2827 2826 2824 2822 2821 2819 2817 2815 2812 2810 2807 2805 2802 2799 2796 2793 2790 2787 2785 2782 2780 2777 2775 2773 2771 2769 2767 2766 2764 2763 2761 2761 2760 2759 2759 2760 2761 2760 2759 2759
2867 2869 2870 2871 2871 2871 2871 2871 2871 2871 2870 2870 2869 2869 2868 2868 2867 2866 2866 2865 2865 2864 2863 2862 2861 2860 2860 2860 2859 2857 2857 2855 2852 2849 2846 2842 2841 2840 2840 2838 2835 2832 2830 2829 2828 2826 2824 2822 2821 2820 2817 2816 2814 2812 2809 2807 2804 2801 2798 2795 2792 2789 2786 2783 2781 2778 2776 2773 2771 2769 2767 2765 2763 2761 2760 2759 2758 2757 2756 2756 2757 2757 2758 2757 2757 2756
2863 2865 2866 2867 2868 2868 2868 2867 2867 2867 2867 2867 2866 2866 2866 2865 2864 2863 2862 2862 2862 2861 2860 2859 2858 2857 2857 2856 2856 2855 2854 2852 2850 2847 2844 2840 2837 2836 2837 2836 2833 2829 2827 2826 2824 2823 2820 2819 2817 2816 2814 2812 2810 2808 2806 2804 2801 2798 2795 2792 2789 2786 2783 2780 2777 2774 2772 2770 2767 2765 2763 2761 2759 2757 2756 2755 2754 2754 2755 2755 2755 2755 2755 2754 2753 2752
2860 2861 2862 2863 2864 2864 2864 2865 2864 2864 2864 2864 2864 2863 2863 2862 2861 2860 2859 2859 2859 2859 2857 2856 2854 2854 2854 2853 2853 2852 2851 2850 2848 2845 2842 2838 2835 2834 2834 2832 2830 2827 2824 2822 2821 2819 2817 2815 2814 2812 2811 2808 2806 2804 2802 2800 2797 2795 2792 2789 2786 2783 2780 2777 2774 2771 2769 2766 2764 2762 2760 2758 2756 2754 2753 2751 2750 2751 2752 2752 2752 2751 2751 2751 2749 2748
2858 2858 2859 2860 2860 2861 2861 2861 2861 2861 2861 2861 2861 2861 2860 2859 2858 2857 2856 2856 2856 2856 2854 2853 2852 2851 2851 2850 2850 2850 2849 2847 2845 2843 2839 2836 2833 2831 2831 2830 2827 2825 2821 2819 2817 2816 2815 2812 2811 2809 2807 2805 2803 2801 2799 2796 2794 2792 2789 2786 2784 2781 2777 2774 2771 2768 2766 2763 2761 2759 2756 2755 2752 2751 2749 2748 2747 2746 2746 2746 2746 2746 2746 2746 2745 2745
2856 2856 2856 2857 2857 2858 2858 2858 2858 2858 2859 2859 2859 2858 2858 2857 2856 2855 2854 2854 2854 2853 2851 2851 2850 2849 2848 2847 2846 2846 2846 2845 2843 2840 2836 2833 2831 2829 2829 2827 2825 2822 2819 2815 2813 2812 2811 2810 2808 2805 2803 2801 2799 2797 2795 2793 2791 2789 2786 2784 2781 2778 2775 2771 2768 2766 2763 2761 2758 2756 2754 2751 2750 2748 2746 2745 2744 2743 2743 2742 2741 2741 2741 2741 2741 2741
2853 2854 2854 2854 2855 2855 2855 2855 2855 2856 2856 2856 2856 2856 2855 2855 2855 2854 2853 2853 2851 2850 2849 2848 2848 2847 2846 2844 2843 2843 2843 2843 2841 2838 2834 2831 2828 2827 2826 2824 2822 2820 2817 2813 2809 2806 2806 2807 2806 2803 2800 2798 2796 2794 2791 2789 2787 2785 2782 2780 2778 2775 2772 2769 2766 2763 2760 2758 2756 2753 2751 2749 2747 2745 2744 2742 2741 2740 2740 2739 2739 2738 2737 2737 2738 2738
2851 2851 2851 2851 2852 2852 2852 2852 2852 2853 2853 2853 2853 2853 2853 2853 2852 2851 2851 2850 2849 2848 2847 2846 2846 2845 2844 2842 2841 2840 2840 2841 2839 2836 2832 2828 2826 2824 2823 2821 2820 2818 2816 2812 2807 2803 2801 2801 2802 2801 2798 2795 2792 2791 2788 2786 2783 2781 2779 2776 2774 2772 2769 2766 2763 2760 2758 2756 2753 2751 2749 2746 2745 2743 2741 2740 2739 2738 2737 2736 2736 2736 2736 2736 2736 2736
2848 2848 2848 2848 2849 2849 2849 2849 2850 2850 2851 2851 2851 2851 2850 2850 2849 2849 2848 2847 2846 2846 2845 2844 2843 2842 2841 2840 2839 2838 2837 2838 2836 2834 2830 2826 2823 2822 2821 2819 2816 2815 2813 2811 2807 2803 2799 2796 2796 2797 2796 2793 2790 2787 2785 2783 2780 2778 2775 2773 2771 2768 2766 2764 2761 2758 2755 2753 2751 2749 2746 2744 2742 2741 2739 2738 2737 2736 2735 2734 2734 2734 2734 2734 2734 2734
2845 2845 2845 2846 2846 2846 2846 2847 2847 2848 2848 2848 2848 2848 2848 2847 2847 2846 2845 2845 2844 2843 2842 2841 2841 2840 2839 2838 2837 2836 2836 2835 2834 2831 2827 2824 2821 2819 2818 2816 2814 2812 2810 2808 2806 2803 2799 2795 2793 2792 2791 2790 2787 2784 2782 2780 2777 2775 2772 2770 2767 2765 2763 2761 2758 2756 2753 2751 2749 2746 2744 2742 2740 2738 2737 2736 2735 2734 2733 2733 2732 2732 2732 2732 2732 2732
2842 2842 2842 2843 2843 2843 2844 2844 2845 2845 2845 2846 2846 2846 2845 2845 2844 2843 2843 2842 2841 2841 2840 2839 2838 2837 2836 2835 2834 2834 2834 2833 2831 2828 2825 2822 2819 2816 2815 2813 2812 2809 2807 2805 2803 2800 2797 2795 2792 2790 2787 2786 2784 2782 2780 2777 2774 2772 2770 2767 2765 2762 2761 2758 2756 2753 2751 2749 2746 2744 2742 2739 2737 2736 2735 2734 2733 2732 2732 2731 2731 2731 2731 2731 2731 2732
2839 2839 2840 2840 2841 2841 2841 2842 2842 2842 2843 2843 2843 2843 2843 2842 2842 2841 2840 2839 2839 2838 2837 2836 2836 2835 2834 2833 2832 2831 2831 2831 2829 2826 2823 2820 2817 2814 2812 2811 2809 2807 2805 2802 2800 2797 2795 2793 2791 2788 2785 2782 2781 2780 2778 2775 2772 2769 2767 2765 2763 2760 2758 2756 2754 2751 2749 2747 2745 2742 2740 2737 2735 2733 2733 2732 2731 2731 2731 2730 2730 2730 2730 2731 2731 2731
2836 2836 2837 2837 2838 2838 2839 2839 2840 2840 2840 2840 2840 2840 2840 2840 2839 2838 2837 2837 2836 2836 2835 2834 2833 2832 2832 2831 2830 2829 2828 2827 2826 2824 2821 2818 2815 2812 2810 2808 2807 2805 2803 2800 2797 2795 2792 2790 2788 2786 2784 2781 2778 2776 2775 2773 2770 2767 2765 2762 2760 2758 2756 2754 2752 2749 2747 2745 2743 2741 2738 2736 2733 2731 2731 2730 2730 2730 2729 2729 2728 2728 2729 2729 2730 2731
2833 2834 2834 2835 2836 2836 2836 2837 2837 2837 2837 2837 2837 2837 2837 2836 2836 2835 2834 2834 2833 2833 2832 2831 2831 2830 2829 2828 2827 2826 2825 2824 2823 2821 2819 2816 2813 2811 2808 2806 2805 2803 2801 2798 2796 2793 2791 2788 2786 2784 2782 2779 2776 2773 2771 2769 2767 2765 2762 2760 2758 2756 2755 2752 2750 2748 2746 2744 2741 2739 2737 2734 2732 2730 2729 2729 2728 2728 2728 2727 2727 2727 2727 2728 2728 2729
2830 2831 2832 2832 2833 2833 2834 2834 2834 2834 2834 2834 2834 2834 2833 2833 2832 2832 2832 2831 2831 2830 2829 2829 2828 2828 2827 2826 2825 2824 2823 2821 2820 2818 2816 2814 2811 2809 2806 2804 2803 2801 2800 2797 2795 2792 2789 2786 2784 2781 2779 2777 2775 2773 2770 2767 2764 2761 2759 2757 2756 2754 2753 2751 2749 2746 2744 2742 2740 2738 2736 2733 2731 2729 2728 2727 2727 2726 2726 2726 2726 2726 2726 2726 2727 2727
2828 2828 2829 2830 2831 2831 2831 2831 2831 2831 2831 2831 2831 2830 2830 2830 2829 2829 2829 2828 2828 2827 2827 2826 2826 2825 2825 2824 2823 2822 2821 2819 2817 2816 2814 2812 2810 2807 2805 2802 2801 2799 2797 2796 2793 2791 2788 2785 2782 2780 2777 2774 2771 2770 2768 2766 2763 2759 2756 2754 2752 2752 2751 2750 2747 2745 2743 2741 2739 2737 2735 2733 2730 2728 2726 2726 2726 2725 2725 2725 2725 2725 2725 2725 2725 2726
2826 2826 2827 2827 2828 2828 2828 2828 2828 2828 2828 2828 2827 2827 2827 2827 2826 2826 2826 2826 2825 2825 2824 2823 2823 2822 2822 2821 2821 2820 2819 2817 2816 2814 2812 2810 2808 2806 2803 2801 2799 2797 2795 2793 2791 2789 2787 2784 2781 2779 2776 2773 2769 2767 2765 2763 2761 2758 2755 2751 2749 2749 2749 2748 2746 2744 2742 2740 2738 2736 2734 2731 2730 2727 2726 2725 2725 2725 2725 2725 2725 2725 2724 2724 2724 2725
2823 2824 2825 2825 2826 2826 2826 2826 2826 2825 2825 2825 2824 2824 2824 2824 2824 2823 2823 2823 2822 2822 2821 2821 2820 2820 2819 2819 2818 2818 2816 2815 2813 2812 2810 2808 2806 2804 2802 2800 2797 2795 2793 2791 2789 2787 2786 2783 2780 2777 2775 2771 2768 2765 2763 2761 2760 2757 2754 2751 2748 2746 2746 2746 2745 2743 2741 2739 2737 2735 2732 2731 2729 2727 2725 2724 2724 2724 2724 2724 2724 2724 2724 2724 2724 2724
2821 2821 2822 2823 2823 2823 2822 2822 2822 2822 2821 2821 2821 2821 2821 2821 2821 2820 2820 2820 2819 2819 2819 2818 2817 2816 2816 2816 2816 2816 2815 2813 2812 2810 2808 2807 2805 2803 2801 2798 2796 2793 2791 2789 2787 2785 2784 2782 2779 2776 2773 2770 2767 2764 2761 2760 2758 2756 2753 2750 2747 2745 2744 2744 2743 2742 2740 2737 2736 2733 2731 2729 2727 2726 2724 2723 2723 2723 2723 2724 2724 2724 2724 2723 2724 2724
2819 2819 2820 2820 2820 2819 2819 2819 2819 2818 2818 2818 2818 2818 2818 2818 2818 2817 2817 2816 2816 2816 2816 2815 2814 2813 2813 2813 2813 2813 2813 2811 2810 2808 2807 2805 2803 2801 2799 2796 2794 2791 2789 2787 2785 2783 2781 2780 2778 2775 2772 2769 2766 2762 2760 2758 2756 2754 2752 2749 2746 2743 2741 2741 2741 2740 2739 2736 2734 2732 2730 2728 2726 2725 2723 2722 2721 2721 2722 2723 2723 2723 2723 2723 2723 2724
2816 2816 2817 2817 2816 2816 2816 2816 2816 2815 2815 2815 2815 2815 2815 2815 2815 2814 2814 2814 2814 2813 2813 2812 2811 2811 2810 2810 2810 2811 2810 2810 2808 2807 2805 2803 2801 2799 2796 2794 2792 2790 2787 2785 2783 2781 2779 2777 2776 2773 2771 2768 2765 2761 2759 2756 2754 2752 2750 2748 2746 2743 2741 2739 2738 2738 2737 2736 2734 2731 2729 2727 2725 2724 2722 2721 2720 2720 2721 2721 2722 2723 2723 2723 2723 2724
2814 2814 2814 2814 2813 2813 2813 2813 2813 2813 2812 2812 2812 2812 2812 2812 2812 2811 2811 2811 2811 2811 2810 2809 2809 2808 2807 2807 2807 2807 2807 2806 2806 2805 2803 2801 2799 2797 2795 2792 2790 2788 2786 2783 2781 2779 2777 2775 2773 2771 2769 2766 2763 2761 2759 2756 2753 2750 2748 2746 2744 2742 2741 2739 2738 2736 2735 2734 2732 2731 2729 2727 2725 2723 2721 2720 2719 2719 2719 2720 2721 2721 2722 2722 2723 2723
2811 2811 2811 2811 2811 2811 2811 2811 2811 2810 2810 2810 2809 2809 2809 2809 2809 2808 2808 2808 2808 2807 2807 2806 2806 2805 2804 2804 2805 2804 2804 2803 2803 2802 2801 2800 2798 2795 2793 2791 2788 2786 2784 2782 2780 2778 2776 2774 2771 2768 2766 2763 2761 2760 2758 2756 2752 2749 2746 2744 2742 2740 2739 2738 2737 2736 2734 2733 2731 2730 2728 2726 2724 2722 2721 2720 2719 2718 2718 2719 2719 2720 2721 2721 2722 2722
2808 2808 2808 2808 2808 2808 2808 2808 2808 2807 2807 2806 2806 2806 2806 2806 2806 2806 2805 2805 2805 2804 2804 2803 2803 2802 2802 2801 2801 2801 2800 2799 2799 2799 2798 2797 2795 2793 2791 2789 2786 2784 2782 2781 2779 2777 2775 2773 2770 2767 2764 2761 2759 2757 2756 2755 2751 2748 2745 2742 2740 2738 2736 2736 2735 2734 2733 2732 2731 2729 2728 2726 2724 2722 2721 2720 2719 2718 2718 2718 2718 2719 2720 2720 2721 2722
2806 2806 2806 2806 2806 2806 2806 2805 2805 2804 2804 2804 2804 2804 2804 2803 2803 2803 2802 2802 2802 2801 2801 2801 2800 2800 2799 2799 2799 2798 2797 2796 2795 2795 2794 2793 2792 2790 2788 2786 2784 2782 2781 2779 2777 2776 2774 2772 2769 2767 2764 2760 2757 2755 2753 2752 2750 2746 2743 2740 2737 2735 2734 2733 2733 2732 2732 2731 2730 2729 2727 2726 2724 2722 2721 2719 2719 2718 2718 2717 2717 2718 2718 2719 2720 2721
2803 2803 2803 2803 2803 2803 2802 2802 2802 2801 2801 2801 2801 2801 2801 2801 2800 2800 2799 2799 2799 2798 2798 2798 2797 2796 2796 2796 2796 2795 2794 2793 2792 2791 2791 2790 2788 2786 2785 2783 2781 2780 2778 2776 2775 2774 2772 2771 2769 2766 2763 2759 2756 2752 2750 2749 2747 2745 2741 2739 2736 2734 2732 2731 2731 2731 2731 2730 2729 2728 2727 2726 2724 2722 2720 2719 2718 2718 2718 2718 2717 2717 2717 2718 2718 2719
2800 2800 2800 2800 2800 2800 2799 2799 2799 2799 2799 2799 2798 2798 2798 2798 2797 2797 2796 2796 2796 2795 2795 2795 2794 2794 2793 2793 2793 2792 2791 2790 2789 2788 2787 2786 2785 2783 2781 2779 2777 2776 2774 2772 2771 2771 2769 2768 2767 2765 2763 2759 2755 2751 2748 2746 2744 2742 2740 2738 2735 2733 2731 2729 2729 2729 2729 2729 2728 2727 2726 2725 2724 2722 2720 2719 2718 2717 2717 2717 2717 2717 2716 2716 2717 2718
2797 2797 2797 2797 2797 2797 2797 2797 2796 2796 2796 2796 2796 2796 2795 2795 2794 2794 2794 2793 2793 2792 2792 2792 2791 2791 2790 2790 2790 2789 2788 2787 2786 2786 2785 2783 2782 2780 2778 2776 2774 2772 2769 2767 2766 2765 2765 2763 2762 2762 2761 2759 2755 2751 2747 2745 2742 2740 2738 2736 2734 2731 2729 2728 2727 2727 2727 2727 2727 2726 2726 2725 2723 2722 2720 2719 2718 2717 2717 2717 2717 2717 2716 2716 2716 2717